Time,TemperatureF,DewpointF,PressureIn,WindDirection,WindDirectionDegrees,WindSpeedMPH,WindSpeedGustMPH,Humidity,HourlyPrecipIn,Conditions,Clouds,dailyrainin,SoftwareType,DateUTC
2013-03-16 00:10:00,62.0,-99.9,-100.00,SSW,208,23.0,30.0,-999,-99.99,,,-99.99,,2013-03-16 07:10:00,
2013-03-16 00:22:00,62.0,-99.9,-100.00,SW,228,17.0,23.0,-999,-99.99,,,-99.99,,2013-03-16 07:22:00,
2013-03-16 00:32:00,62.0,-99.9,-100.00,SW,228,17.0,23.0,-999,-99.99,,,-99.99,,2013-03-16 07:32:00,
2013-03-16 00:53:00,62.0,-99.9,-100.00,SSW,208,23.0,30.0,-999,-99.99,,,-99.99,,2013-03-16 07:53:00,
2013-03-16 01:03:00,62.0,-99.9,-100.00,SSW,208,23.0,30.0,-999,-99.99,,,-99.99,,2013-03-16 08:03:00,
2013-03-16 02:40:00,59.0,-99.9,-100.00,South,174,14.0,18.0,-999,-99.99,,,-99.99,,2013-03-16 09:40:00,
2013-03-16 03:23:00,59.0,-99.9,-100.00,South,174,14.0,18.0,-999,-99.99,,,-99.99,,2013-03-16 10:23:00,
2013-03-16 03:33:00,59.0,-99.9,-100.00,South,174,14.0,18.0,-999,-99.99,,,-99.99,,2013-03-16 10:33:00,
2013-03-16 04:30:00,58.0,-99.9,-100.00,SE,124,9.0,16.0,-999,-99.99,,,-99.99,,2013-03-16 11:30:00,
2013-03-16 04:33:00,59.0,-99.9,-100.00,South,186,2.0,13.0,-999,-99.99,,,-99.99,,2013-03-16 11:33:00,
2013-03-16 04:43:00,59.0,-99.9,-100.00,South,186,2.0,13.0,-999,-99.99,,,-99.99,,2013-03-16 11:43:00,
2013-03-16 04:53:00,59.0,-99.9,-100.00,South,186,2.0,13.0,-999,-99.99,,,-99.99,,2013-03-16 11:53:00,
2013-03-16 05:23:00,58.0,-99.9,-100.00,SE,124,9.0,16.0,-999,-99.99,,,-99.99,,2013-03-16 12:23:00,
2013-03-16 07:30:00,58.0,-99.9,-100.00,West,277,22.0,27.0,-999,-99.99,,,-99.99,,2013-03-16 14:30:00,
2013-03-16 08:23:00,58.0,-99.9,-100.00,West,277,22.0,27.0,-999,-99.99,,,-99.99,,2013-03-16 15:23:00,
2013-03-16 09:53:00,64.0,-99.9,-100.00,West,273,25.0,29.0,-999,-99.99,,,-99.99,,2013-03-16 16:53:00,
2013-03-16 10:03:00,64.0,-99.9,-100.00,West,273,25.0,29.0,-999,-99.99,,,-99.99,,2013-03-16 17:03:00,
2013-03-16 10:53:00,72.0,-99.9,-100.00,West,262,21.0,21.0,-999,-99.99,,,-99.99,,2013-03-16 17:53:00,
2013-03-16 11:53:00,74.0,-99.9,-100.00,West,272,11.0,18.0,-999,-99.99,,,-99.99,,2013-03-16 18:53:00,
2013-03-16 12:02:00,75.0,-99.9,-100.00,WNW,286,6.0,17.0,-999,-99.99,,,-99.99,,2013-03-16 19:02:00,
2013-03-16 13:03:00,70.0,-99.9,-100.00,SW,231,24.0,29.0,-999,-99.99,,,-99.99,,2013-03-16 20:03:00,
2013-03-16 13:13:00,70.0,-99.9,-100.00,SW,231,24.0,29.0,-999,-99.99,,,-99.99,,2013-03-16 20:13:00,
2013-03-16 13:22:00,69.0,-99.9,-100.00,SW,224,29.0,32.0,-999,-99.99,,,-99.99,,2013-03-16 20:22:00,
2013-03-16 13:33:00,69.0,-99.9,-100.00,SW,224,29.0,32.0,-999,-99.99,,,-99.99,,2013-03-16 20:33:00,
2013-03-16 15:53:00,74.0,-99.9,-100.00,WSW,253,34.0,34.0,-999,-99.99,,,-99.99,,2013-03-16 22:53:00,
2013-03-16 16:03:00,70.0,-99.9,-100.00,SW,224,29.0,31.0,-999,-99.99,,,-99.99,,2013-03-16 23:03:00,
2013-03-16 16:13:00,70.0,-99.9,-100.00,SW,224,29.0,31.0,-999,-99.99,,,-99.99,,2013-03-16 23:13:00,
2013-03-16 16:23:00,70.0,-99.9,-100.00,SW,224,29.0,31.0,-999,-99.99,,,-99.99,,2013-03-16 23:23:00,
2013-03-16 16:30:00,69.0,-99.9,-100.00,WSW,242,20.0,29.0,-999,-99.99,,,-99.99,,2013-03-16 23:30:00,
2013-03-16 17:23:00,69.0,-99.9,-100.00,WSW,242,20.0,29.0,-999,-99.99,,,-99.99,,2013-03-17 00:23:00,
2013-03-16 19:03:00,65.0,-99.9,-100.00,SW,225,23.0,23.0,-999,-99.99,,,-99.99,,2013-03-17 02:03:00,
2013-03-16 19:13:00,65.0,-99.9,-100.00,SW,225,23.0,23.0,-999,-99.99,,,-99.99,,2013-03-17 02:13:00,
2013-03-16 19:33:00,62.0,-99.9,-100.00,West,271,24.0,29.0,-999,-99.99,,,-99.99,,2013-03-17 02:33:00,
2013-03-16 19:43:00,62.0,-99.9,-100.00,West,271,24.0,29.0,-999,-99.99,,,-99.99,,2013-03-17 02:43:00,
2013-03-16 19:53:00,61.0,-99.9,-100.00,NW,306,16.0,21.0,-999,-99.99,,,-99.99,,2013-03-17 02:53:00,
2013-03-16 20:03:00,61.0,-99.9,-100.00,NW,306,16.0,21.0,-999,-99.99,,,-99.99,,2013-03-17 03:03:00,
2013-03-16 20:12:00,61.0,-99.9,-100.00,NW,306,16.0,21.0,-999,-99.99,,,-99.99,,2013-03-17 03:12:00,
2013-03-16 20:23:00,59.0,-99.9,-100.00,NNE,16,6.0,13.0,-999,-99.99,,,-99.99,,2013-03-17 03:23:00,
2013-03-16 20:34:00,59.0,-99.9,-100.00,NNE,16,6.0,13.0,-999,-99.99,,,-99.99,,2013-03-17 03:34:00,
2013-03-16 20:43:00,59.0,-99.9,-100.00,NNE,16,6.0,13.0,-999,-99.99,,,-99.99,,2013-03-17 03:43:00,
2013-03-16 22:00:00,58.0,-99.9,-100.00,WNW,284,15.0,25.0,-999,-99.99,,,-99.99,,2013-03-17 05:00:00,
2013-03-16 22:32:00,58.0,-99.9,-100.00,WNW,292,14.0,29.0,-999,-99.99,,,-99.99,,2013-03-17 05:32:00,
2013-03-16 22:43:00,58.0,-99.9,-100.00,WNW,292,14.0,29.0,-999,-99.99,,,-99.99,,2013-03-17 05:43:00,
2013-03-16 22:52:00,58.0,-99.9,-100.00,WNW,284,15.0,25.0,-999,-99.99,,,-99.99,,2013-03-17 05:52:00,